Weather in Rzhevka

Russia / Belgorod Oblast     50°26′15″N   36°59′14″E
temp.,
°C
wind,
m/s
gust,
m/s
humid.,
%
clouds,
%
prec.,
mm/h
press.,
hPa
HPBL,
m
25 february, thu
thu2500:00−8ssw5993100 0.4 1034402
03:00−7ssw4995100 0.8 1033322
06:00−7ssw4894100 0.3 1031327
09:00−5sw5994100 0.4 1029340
12:000sw61094100 0.1 1028378
15:000sw61196100 0.1 1025344
18:00+2wsw51398100 0.1 1023386
21:00+2w51199100 0.3 1023246
26 february, fri
fri2600:00+2w51199100 0.0 1022284
03:00+2wnw51098100 0.1 1022268
06:00+2wnw41199100 0.0 1022238
09:00+2w51098100 0.0 1021325
12:00+3w61298100 0.0 1020410
15:00+3wsw71398100 0.0 1018475
18:00+3w61398100 0.0 1016443
21:00+2wnw51198100 0.1 1016361
27 february, sat
sat2700:00+2w51196100 0.0 1014367
03:00+2w5998100 0.0 1013323
06:00+1w51096100 0.0 1012355
09:00+1w51094100 0.0 1011437
12:00+1wnw61097100 0.1 1010556
15:00+1w5109599 0.2 1011628
18:00+1wnw5998100 0.1 1011431
21:00+1nw5997100 0.1 1011450
28 february, sun
sun2800:00+1nnw489798 0.1 1012435
03:000nnw499197 0.2 1014458
06:00−1n5118576 0.1 1015734
09:00−2n597863 0.1 1018596
12:00−1n577468 0.0 1019689
15:00−1nnw587682 0.0 1020757
18:00−3nnw6876100 0.0 1021771
21:00−3n5779100 0.1 1023785
1 march, mon
mon100:00−3n4676100 0.0 1024735
03:00−3nne4577100 0.1 1025743
06:00−4n4677100 0.0 1027728
09:00−4nne4574100 0.1 1028779
12:00−3n4571100 0.0 1030766
15:00−2n4569100 0.0 1031752
18:00−2nnw467286 0.0 1031712
21:00−3nw378056 0.0 1032468